This is the latest recevied weather packets stored in our database for station/object N5JXS. If no packets are shown the sender has not sent any weather packets the latest 10 day(s).
| Time | Temp. | Humidity | Pressure | Rain* | Wind** | Luminosity | Snow |
|---|---|---|---|---|---|---|---|
| 1777327943 | 6.11° C | 81% | 1014.9 hPa | 0 mm | - | 68 W/m² | - |
| 1777327641 | 6.11° C | 81% | 1014.8 hPa | 0 mm | - | 106 W/m² | - |
| 1777327337 | 6.11° C | 82% | 1014.8 hPa | 0 mm | - | 105 W/m² | - |
| 1777327034 | 6.11° C | 83% | 1014.9 hPa | 1.27 mm | - | 129 W/m² | - |
| 1777326732 | 6.11° C | 82% | 1014.9 hPa | 1.27 mm | - | 186 W/m² | - |
| 1777326429 | 6.11° C | 81% | 1015.3 hPa | 1.78 mm | - | 87 W/m² | - |
| 1777326127 | 6.11° C | 80% | 1015.3 hPa | 1.78 mm | - | 139 W/m² | - |
| 1777325824 | 6.11° C | 77% | 1015.3 hPa | 1.27 mm | - | 166 W/m² | - |
| 1777325523 | 7.22° C | 74% | 1015 hPa | 1.27 mm | - | 89 W/m² | - |
| 1777325220 | 8.33° C | 65% | 1015.1 hPa | 0 mm | - | 19 W/m² | - |
| 1777324916 | 8.89° C | 63% | 1014.9 hPa | 0 mm | - | 16 W/m² | - |
| 1777324614 | 8.89° C | 61% | 1014.3 hPa | 0 mm | - | 51 W/m² | - |
| 1777324311 | 8.89° C | 63% | 1014.8 hPa | 0 mm | - | 115 W/m² | - |
| 1777324008 | 8.89° C | 63% | 1014.4 hPa | 0 mm | - | 144 W/m² | - |
| 1777323706 | 8.89° C | 63% | 1014.6 hPa | 0 mm | - | 150 W/m² | - |
| 1777323403 | 8.89° C | 64% | 1014.6 hPa | 0 mm | - | 65 W/m² | - |
| 1777323101 | 8.89° C | 62% | 1014.5 hPa | 0 mm | - | 55 W/m² | - |
| 1777322799 | 8.89° C | 59% | 1014.5 hPa | 0 mm | - | 41 W/m² | - |
| 1777322496 | 9.44° C | 59% | 1014.4 hPa | 0 mm | - | 24 W/m² | - |
| 1777322193 | 9.44° C | 57% | 1014.3 hPa | 0 mm | - | 39 W/m² | - |
| 1777321890 | 10° C | 56% | 1014.6 hPa | 0 mm | - | 81 W/m² | - |
| 1777321586 | 10° C | 56% | 1014.4 hPa | 0 mm | - | 168 W/m² | - |
| 1777321284 | 10° C | 55% | 1014.6 hPa | 0 mm | - | 134 W/m² | - |
| 1777320981 | 10.56° C | 54% | 1014.4 hPa | 0 mm | - | 119 W/m² | - |
| 1777320679 | 10.56° C | 55% | 1014.4 hPa | 0 mm | - | 189 W/m² | - |
* Rain latest hour (hover to see other rain measurements)
** Current wind speed in m/s (hover to see current wind gust speed)